Current weather by "City, St" or "zip code"  
 

Current Conditions: Philip, Philip Airport, SD

Fair


45.0 F

Last Updated on Oct 21 2021, 11:55 am MDT
Humidity: 58%
Wind Speed: N 0.0 mph
Barometer 30.22 in
Dewpoint: 30.9 F
Visibility: 10.00 mi
Precip: --
Heat Index: NA
Wind Chill: NA
Current conditions at:

Philip, Philip Airport, SD (KPHP)

Lat: 44.05111 Lon: 101.60111

Local Radar Image active severe weather and emergency alerts image image weather storm and storm spotter reports image weather observation monitoring service image
Local
Radar
Active
Alerts
Storm Reports Obs
Monitoring

Sign-up For Email & Text Message Weather Alert Notification Services



Advertise Here

Observation History for Philip, Philip Airport, SD


Time Wind
(mph)
Vis
(mi)
Weather Precip (in) Temperature (F) Relative
Humidity
Wind
Chill
(F)
Heat
Index
(F)
Pressure
Air Dwpt altimeter
(in)
sea level
(mb)
Rmks
11:55 am MDT N 0.0 10.00 Fair -- 45.0 30.9 58% NA NA 30.22 1025.0
10:55 am MDT SW 4.6 10.00 Fair -- 41.0 35.1 79% 38 NA 30.24 1025.8
9:55 am MDT W 3.5 10.00 Fair -- 34.0 28.9 82% NA NA 30.25 1026.4
8:55 am MDT W 4.6 10.00 Fair -- 29.0 26.1 89% 24 NA 30.26 1026.6
7:55 am MDT N 0.0 10.00 Fair -- 24.0 21.9 91% NA NA 30.24 1026.4
6:55 am MDT N 0.0 10.00 Fair -- 22.0 21.0 96% NA NA 30.24 1026.3
5:55 am MDT N 0.0 10.00 Fair -- 24.0 21.0 88% NA NA 30.24 1026.1
4:55 am MDT W 8.1 10.00 Fair -- 24.0 21.9 91% 15 NA 30.24 1025.9
3:55 am MDT W 3.5 10.00 Fair -- 23.0 21.9 96% NA NA 30.20 1024.7
2:55 am MDT W 4.6 10.00 Fair -- 25.0 21.9 88% 19 NA 30.21 1024.8
1:55 am MDT W 6.9 10.00 Fair -- 26.0 24.1 92% 18 NA 30.22 1025.3
12:55 am MDT W 6.9 10.00 Fair -- 26.0 24.1 92% 18 NA 30.21 1025.0
11:55 pm MDT W 5.8 10.00 Fair -- 27.0 25.0 92% 20 NA 30.20 1024.5
10:55 pm MDT NW 4.6 10.00 Fair -- 28.0 27.0 96% 23 NA 30.20 1024.5
9:55 pm MDT W 5.8 10.00 Fair -- 28.0 26.1 92% 22 NA 30.20 1024.6
8:55 pm MDT NW 8.1 10.00 Fair -- 32.0 28.9 88% 25 NA 30.19 1024.3
7:55 pm MDT NW 5.8 10.00 Fair -- 32.0 30.0 92% 26 NA 30.18 1023.9
6:55 pm MDT NW 4.6 10.00 Fair -- 34.0 30.9 89% 30 NA 30.18 1023.5
5:55 pm MDT N 6.9 10.00 A Few Clouds -- 37.0 32.0 82% 32 NA 30.16 1022.7
4:55 pm MDT N 15.0 10.00 Overcast -- 41.0 33.1 73% 33 NA 30.15 1022.2
3:55 pm MDT NW 13.8 10.00 Overcast -- 40.0 34.0 79% 32 NA 30.16 1022.3
2:55 pm MDT N 12.7 10.00 Overcast -- 39.0 35.1 86% 31 NA 30.16 1022.4
1:55 pm MDT N 12.7 10.00 Overcast -- 39.0 35.1 86% 31 NA 30.16 1022.4
12:55 pm MDT NW 17.3 G 25.3 10.00 Overcast -- 38.0 35.1 89% 29 NA 30.17 1022.8

Regional Weather Observation


Faith, SD (KD07)

NULL
43.0 F

Rapid City, Rapid City Regional Airport, SD (KRAP)

Fair
47.0 F

Pierre, Pierre Regional Airport, SD (KPIR)

Partly Cloudy
40.0 F

Ellsworth Air Force Base, SD (KRCA)

Fair
49.0 F

Pine Ridge, Pine Ridge Airport, SD (KIEN)

Fair
44.0 F

Spearfish / Clyde Ice, SD (KSPF)

Fair
54.0 F

Advertise Here


Advertise Here